Location: Unspecified
(0.0000°N, 0.0000°E)
Time: 17:02:20
(UTC+00:00)

deb Delta 126 - Pass Details

Date: 18 February 2026
Orbit: 1501 x 2092 km, 101.9° (Epoch: 8 March)

Event Time Altitude Azimuth Distance (km) Brightness Sun altitude
Rises 02:52:21 0° 34° (NNE) 4,728 ? -49.0°
Reaches altitude 10° 02:55:20 10° 41° (NE) 3,798 ? -48.3°
Maximum altitude 03:03:35 41° 108° (ESE) 2,307 ? -46.3°
Drops below altitude 10° 03:12:39 10° 174° (S) 4,194 ? -44.1°
Sets 03:16:05 0° 181° (S) 5,269 ? -43.3°
